FW7348 Weather Reports


time (UTC)temp
C
wind
direction
speed
KPH
gust
KPH
rain 1hr
cm
rain 24hr
cm
rain mn
cm
humidity
%
barometer
mb
20260510130543 3 5 9.7 17.7 0.00 0.00 0.00 77 1021.4
20260510130041 3 49 11.3 22.5 0.00 0.00 0.00 77 1021.5
20260510125536 3 307 14.5 27.4 0.00 0.00 0.00 77 1021.3
20260510125033 3 304 12.9 17.7 0.00 0.00 0.00 78 1021.2
20260510124530 3 265 3.2 14.5 0.00 0.00 0.00 83 1021.4
20260510124027 3 337 8.0 11.3 0.00 0.00 0.00 82 1021.3
20260510123522 2 321 8.0 16.1 0.00 0.00 0.00 83 1021.2
20260510123018 3 278 1.6 20.9 0.00 0.00 0.00 83 1021.2
20260510122514 2 31 6.4 12.9 0.00 0.00 0.00 83 1021.1
20260510122010 2 9 6.4 12.9 0.00 0.00 0.00 84 1020.8
20260510121508 2 340 14.5 17.7 0.00 0.00 0.00 84 1020.7
20260510121005 2 304 11.3 12.9 0.00 0.00 0.00 85 1020.7
20260510120502 2 50 4.8 12.9 0.00 0.00 0.00 85 1020.6
20260510115957 2 328 12.9 20.9 0.00 0.00 0.00 85 1020.5
20260510115455 2 341 4.8 20.9 0.00 0.00 0.00 85 1020.5
20260510114950 1 315 6.4 14.5 0.00 0.00 0.00 87 1020.4
20260510114448 1 292 9.7 16.1 0.00 0.00 0.00 88 1020.0
20260510113943 1 320 6.4 16.1 0.00 0.00 0.00 88 1020.4
20260510113438 1 328 11.3 17.7 0.00 0.00 0.00 88 1020.4
20260510112937 1 350 16.1 20.9 0.00 0.00 0.00 88 1020.2
20260510112434 1 339 12.9 16.1 0.00 0.00 0.00 89 1020.2
20260510111929 1 321 6.4 14.5 0.00 0.00 0.00 89 1019.8
20260510111426 1 327 4.8 12.9 0.00 0.00 0.00 89 1019.8
20260510110922 1 8 8.0 17.7 0.00 0.00 0.00 90 1019.7
20260510110418 1 318 6.4 16.1 0.00 0.00 0.00 90 1019.4
20260510105914 1 3 11.3 25.7 0.00 0.00 0.00 90 1019.6
20260510105409 1 7 4.8 12.9 0.00 0.00 0.00 90 1019.4
20260510104904 1 330 19.3 24.1 0.00 0.00 0.00 90 1019.2
20260510104402 1 357 11.3 20.9 0.00 0.00 0.00 90 1019.3
20260510103858 1 278 9.7 22.5 0.00 0.00 0.00 90 1019.2
20260510103355 1 318 12.9 17.7 0.00 0.00 0.00 91 1019.0
20260510102851 1 347 8.0 17.7 0.00 0.00 0.00 91 1018.9
20260510102347 1 329 14.5 20.9 0.00 0.00 0.00 91 1018.9
20260510101844 1 334 16.1 20.9 0.00 0.00 0.00 91 1019.0
20260510101342 1 327 8.0 12.9 0.00 0.00 0.00 92 1018.8
20260510100838 1 287 6.4 17.7 0.00 0.00 0.00 92 1019.0
20260510100336 1 324 8.0 16.1 0.00 0.00 0.00 92 1019.0
20260510095832 1 344 8.0 14.5 0.00 0.00 0.00 92 1019.0
20260510095326 1 300 11.3 22.5 0.00 0.00 0.00 92 1019.0
20260510094821 1 319 12.9 14.5 0.00 0.00 0.00 92 1018.7
20260510094316 1 7 14.5 22.5 0.00 0.00 0.00 92 1018.8
20260510093813 1 321 9.7 14.5 0.00 0.00 0.00 92 1018.9
20260510093309 1 287 16.1 20.9 0.00 0.00 0.00 92 1018.8
20260510092805 1 327 12.9 17.7 0.00 0.00 0.00 92 1018.8
20260510092301 1 355 9.7 11.3 0.00 0.00 0.00 93 1018.6
20260510091757 1 315 8.0 11.3 0.00 0.00 0.00 93 1018.7
20260510091255 1 356 4.8 16.1 0.00 0.00 0.00 93 1018.5
20260510090751 1 307 4.8 14.5 0.00 0.00 0.00 93 1018.6
20260510090248 1 326 4.8 9.7 0.00 0.00 0.00 93 1018.5
20260510085744 1 355 6.4 12.9 0.00 0.00 0.00 93 1018.7
20260510085238 1 345 8.0 16.1 0.00 0.00 0.00 93 1018.4
20260510084734 1 292 6.4 12.9 0.00 0.00 0.00 93 1018.5
20260510084231 1 296 6.4 9.7 0.00 0.00 0.00 93 1018.2
20260510083727 1 326 8.0 11.3 0.00 0.00 0.00 93 1018.3
20260510083224 1 348 4.8 12.9 0.00 0.00 0.00 93 1018.2
20260510082720 1 328 6.4 9.7 0.00 0.00 0.00 93 1018.3
20260510082217 1 322 8.0 11.3 0.00 0.00 0.00 93 1018.4
20260510081716 1 315 4.8 16.1 0.00 0.00 0.00 93 1018.0
20260510081212 1 333 4.8 16.1 0.00 0.00 0.00 93 1018.3
20260510080707 1 300 8.0 11.3 0.00 0.00 0.00 93 1018.1
20260510080203 1 327 3.2 12.9 0.00 0.00 0.00 91 1018.1
20260510075700 1 334 9.7 12.9 0.00 0.00 0.00 90 1018.1
20260510075158 1 307 4.8 11.3 0.00 0.00 0.00 91 1018.2
20260510074655 1 330 6.4 16.1 0.00 0.00 0.00 90 1018.1
20260510074150 1 327 12.9 17.7 0.00 0.00 0.00 90 1018.0
20260510073647 1 325 4.8 9.7 0.00 0.00 0.00 90 1017.9
20260510073143 1 330 4.8 16.1 0.00 0.00 0.00 91 1017.9
20260510072640 1 4 8.0 14.5 0.00 0.00 0.00 90 1017.8
20260510072136 1 300 8.0 17.7 0.00 0.00 0.00 91 1017.8
20260510071632 1 329 6.4 14.5 0.00 0.00 0.00 91 1018.0
20260510071130 1 325 14.5 17.7 0.00 0.00 0.00 92 1018.0
20260510070627 1 10 6.4 16.1 0.00 0.00 0.00 92 1017.8
20260510070124 1 348 4.8 9.7 0.00 0.00 0.00 92 1017.7
20260510065620 1 328 4.8 9.7 0.00 0.00 0.00 91 1018.0
20260510065116 1 328 3.2 16.1 0.00 0.00 0.00 91 1017.8
20260510064613 1 333 8.0 16.1 0.00 0.00 0.00 92 1017.6
20260510064109 1 292 6.4 9.7 0.00 0.00 0.00 92 1017.4
20260510063601 1 340 6.4 8.0 0.00 0.00 0.00 92 1017.5
20260510063058 1 311 6.4 11.3 0.00 0.00 0.00 91 1017.6
20260510062553 1 331 4.8 9.7 0.00 0.00 0.00 92 1017.6
20260510062049 1 324 8.0 11.3 0.00 0.00 0.00 92 1017.4
20260510061545 1 304 3.2 9.7 0.00 0.00 0.00 92 1017.3
20260510061042 1 336 3.2 8.0 0.00 0.00 0.00 92 1017.3
20260510060538 1 356 4.8 9.7 0.00 0.00 0.00 92 1017.3
20260510060035 1 335 4.8 14.5 0.00 0.00 0.00 91 1017.5
20260510055531 1 344 6.4 11.3 0.00 0.00 0.00 92 1017.5
20260510055030 1 330 8.0 9.7 0.00 0.00 0.00 91 1017.5
20260510054525 1 315 3.2 9.7 0.00 0.00 0.00 91 1017.8
20260510054020 1 291 4.8 9.7 0.00 0.00 0.00 90 1017.6
20260510053515 1 333 4.8 14.5 0.00 0.00 0.00 90 1017.5
20260510053012 2 324 12.9 16.1 0.00 0.00 0.00 88 1017.4
20260510052508 2 315 8.0 12.9 0.00 0.00 0.00 89 1017.6
20260510052004 1 321 6.4 22.5 0.00 0.00 0.00 89 1017.8
20260510051500 1 318 8.0 16.1 0.00 0.00 0.00 90 1017.8
20260510050957 1 341 6.4 11.3 0.00 0.00 0.00 91 1017.5
20260510050454 1 277 6.4 9.7 0.00 0.00 0.00 91 1017.3
20260510045951 1 344 6.4 11.3 0.00 0.00 0.00 91 1017.2
20260510045448 1 340 4.8 8.0 0.00 0.00 0.00 91 1017.0
20260510044944 1 344 6.4 9.7 0.00 0.00 0.00 91 1016.9
20260510044441 1 288 1.6 4.8 0.00 0.00 0.00 91 1017.3
20260510043938 1 314 1.6 4.8 0.00 0.00 0.00 91 1017.4
20260510043434 1 308 1.6 4.8 0.00 0.00 0.00 91 1017.3
20260510042932 1 281 1.6 3.2 0.00 0.00 0.00 90 1017.2
20260510042428 1 265 1.6 3.2 0.00 0.00 0.00 90 1017.2
20260510041924 1 255 0.0 1.6 0.00 0.00 0.00 90 1017.0
20260510041421 1 256 4.8 8.0 0.00 0.00 0.00 89 1017.3
20260510040919 2 340 1.6 8.0 0.00 0.00 0.00 89 1017.2
20260510040415 2 315 3.2 4.8 0.00 0.00 0.00 89 1017.0
20260510035911 2 336 1.6 3.2 0.00 0.00 0.00 89 1017.0
20260510035408 2 316 3.2 9.7 0.00 0.00 0.00 88 1016.9
20260510034902 2 330 4.8 9.7 0.00 0.00 0.00 88 1016.8
20260510034401 2 315 4.8 4.8 0.00 0.00 0.00 89 1016.7
20260510033857 2 307 3.2 11.3 0.00 0.00 0.00 87 1016.7
20260510033354 2 243 3.2 8.0 0.00 0.00 0.00 87 1016.7
20260510032850 2 308 1.6 3.2 0.00 0.00 0.00 87 1016.8
20260510032347 2 321 0.0 4.8 0.00 0.00 0.00 86 1016.7
20260510031843 2 357 3.2 9.7 0.00 0.00 0.00 86 1016.6
20260510031338 2 315 8.0 9.7 0.00 0.00 0.00 86 1017.2
20260510030838 2 311 1.6 8.0 0.00 0.00 0.00 86 1017.0
20260510030335 2 317 4.8 14.5 0.00 0.00 0.00 85 1016.7
20260510025832 2 11 6.4 14.5 0.00 0.00 0.00 85 1016.5
20260510025329 2 334 1.6 11.3 0.00 0.00 0.00 86 1016.8
20260510024826 2 346 8.0 11.3 0.00 0.00 0.00 86 1016.8
20260510024323 2 325 8.0 14.5 0.00 0.00 0.00 86 1016.8
20260510023819 2 309 3.2 8.0 0.00 0.00 0.00 87 1016.9
20260510023315 2 314 1.6 12.9 0.00 0.00 0.00 87 1016.5
20260510022813 3 302 3.2 12.9 0.00 0.00 0.00 87 1016.6
20260510022312 3 347 4.8 8.0 0.00 0.00 0.00 86 1016.6
20260510021811 3 247 1.6 8.0 0.00 0.00 0.00 86 1016.9
20260510021310 3 290 6.4 12.9 0.00 0.00 0.00 84 1016.7
20260510020806 2 318 3.2 4.8 0.00 0.00 0.00 87 1016.5
20260510020306 2 342 3.2 3.2 0.00 0.00 0.00 90 1016.4
20260510015802 2 287 4.8 4.8 0.00 0.00 0.00 89 1016.2
20260510015258 2 351 1.6 4.8 0.00 0.00 0.00 87 1015.8
20260510014753 2 319 4.8 8.0 0.00 0.00 0.00 88 1015.9
20260510014250 2 345 3.2 3.2 0.00 0.00 0.00 89 1015.8
20260510013746 2 332 3.2 8.0 0.00 0.00 0.00 88 1015.7
20260510013242 2 0 3.2 4.8 0.00 0.00 0.00 88 1015.5
20260510012737 2 337 3.2 8.0 0.00 0.00 0.00 89 1015.5
20260510012232 2 324 3.2 4.8 0.00 0.00 0.00 90 1015.4
20260510011732 2 317 6.4 9.7 0.00 0.00 0.00 89 1015.4
20260510011227 3 331 4.8 4.8 0.00 0.00 0.00 90 1015.3
20260510010725 3 341 4.8 8.0 0.00 0.00 0.00 88 1015.3
20260510010221 3 16 4.8 14.5 0.00 0.00 0.00 87 1015.3
20260510005718 5 288 12.9 20.9 0.00 0.00 0.00 78 1015.6
20260510005214 5 315 6.4 11.3 0.00 0.00 0.00 68 1015.5
20260510004713 5 358 3.2 3.2 0.00 0.00 0.00 68 1015.0
20260510004211 5 317 4.8 9.7 0.00 0.00 0.00 67 1014.7
20260510003708 5 321 11.3 12.9 0.00 0.00 0.00 67 1015.0
20260510003203 6 347 3.2 9.7 0.00 0.00 0.00 66 1014.5
20260510002657 6 19 6.4 11.3 0.00 0.00 0.00 66 1014.5
20260510002155 6 25 8.0 16.1 0.00 0.00 0.00 66 1014.7
20260510001651 6 294 9.7 14.5 0.00 0.00 0.00 67 1014.7
20260510001150 5 2 9.7 17.7 0.00 0.00 0.00 68 1014.5
20260510000650 6 303 11.3 24.1 0.00 0.00 0.00 67 1014.6
20260510000148 7 321 17.7 29.0 0.00 0.00 0.00 56 1014.7
20260509235644 7 256 1.6 14.5 0.00 0.00 0.00 50 1014.2
20260509235141 7 350 3.2 4.8 0.00 0.00 0.00 50 1014.2
20260509234637 8 258 22.5 32.2 0.00 0.00 0.00 49 1013.7
20260509234135 8 318 12.9 16.1 0.00 0.00 0.00 48 1013.8
20260509233633 8 310 6.4 11.3 0.00 0.00 0.00 48 1013.7
20260509233130 8 295 6.4 14.5 0.00 0.00 0.00 48 1013.6
20260509232626 8 223 6.4 9.7 0.00 0.00 0.00 49 1013.6
20260509232123 8 320 12.9 16.1 0.00 0.00 0.00 48 1013.5
20260509231619 7 238 1.6 17.7 0.00 0.00 0.00 49 1013.6
20260509231117 7 240 1.6 9.7 0.00 0.00 0.00 49 1013.5
20260509230614 7 10 6.4 11.3 0.00 0.00 0.00 49 1013.5
20260509230111 8 209 3.2 17.7 0.00 0.00 0.00 48 1013.6
20260509225607 8 300 6.4 14.5 0.00 0.00 0.00 48 1013.5
20260509225102 8 317 6.4 17.7 0.00 0.00 0.00 48 1013.5
20260509224557 8 259 12.9 20.9 0.00 0.00 0.00 48 1013.4
20260509224055 8 359 3.2 22.5 0.00 0.00 0.00 48 1013.3
20260509223552 8 14 8.0 9.7 0.00 0.00 0.00 47 1013.5
20260509223049 8 25 9.7 14.5 0.00 0.00 0.00 48 1013.4
20260509222545 8 286 6.4 12.9 0.00 0.00 0.00 46 1013.1
20260509222041 8 357 8.0 27.4 0.00 0.00 0.00 48 1013.1
20260509221537 8 303 6.4 24.1 0.00 0.00 0.00 49 1013.1
20260509221033 8 320 3.2 16.1 0.00 0.00 0.00 49 1013.2
20260509220529 8 312 8.0 16.1 0.00 0.00 0.00 50 1012.9
20260509220026 8 249 8.0 16.1 0.00 0.00 0.00 51 1012.9
20260509215521 8 217 16.1 20.9 0.00 0.00 0.00 49 1012.8
20260509215019 8 173 1.6 12.9 0.00 0.00 0.00 49 1012.8
20260509214516 10 296 3.2 14.5 0.00 0.00 0.00 48 1012.8
20260509214013 9 218 8.0 14.5 0.00 0.00 0.00 49 1012.9
20260509213508 7 305 14.5 22.5 0.00 0.00 0.00 52 1013.0
20260509213006 7 342 11.3 24.1 0.00 0.00 0.00 52 1012.9
20260509212503 8 325 8.0 16.1 0.00 0.00 0.00 52 1012.8
20260509211959 8 245 1.6 12.9 0.00 0.00 0.00 52 1012.7
20260509211455 8 291 3.2 17.7 0.00 0.00 0.00 52 1012.6
20260509210952 8 328 8.0 25.7 0.00 0.00 0.00 51 1012.5
20260509210449 8 246 8.0 22.5 0.00 0.00 0.00 52 1012.6
20260509205944 7 280 6.4 16.1 0.00 0.00 0.00 53 1012.8
20260509205439 7 355 17.7 25.7 0.00 0.00 0.00 53 1012.8
20260509204935 7 16 8.0 12.9 0.00 0.00 0.00 53 1012.6
20260509204431 7 320 9.7 17.7 0.00 0.00 0.00 53 1012.3
20260509203928 7 356 11.3 14.5 0.00 0.00 0.00 53 1012.7
20260509203424 7 90 9.7 25.7 0.00 0.00 0.00 53 1012.6
20260509202922 7 303 4.8 20.9 0.00 0.00 0.00 51 1012.2
20260509202418 7 284 6.4 9.7 0.00 0.00 0.00 51 1012.1
20260509201913 8 330 9.7 24.1 0.00 0.00 0.00 51 1012.3
20260509201408 7 319 32.2 40.2 0.00 0.00 0.00 52 1012.3
20260509200905 7 270 11.3 14.5 0.00 0.00 0.00 52 1012.2
20260509200400 7 206 8.0 14.5 0.00 0.00 0.00 51 1012.0
20260509195857 8 345 9.7 20.9 0.00 0.00 0.00 49 1012.0
20260509195356 8 323 17.7 32.2 0.00 0.00 0.00 49 1011.9
20260509194851 7 294 4.8 12.9 0.00 0.00 0.00 51 1011.9
20260509194348 8 279 19.3 25.7 0.00 0.00 0.00 49 1011.8
20260509193844 8 55 6.4 12.9 0.00 0.00 0.00 49 1011.7
20260509193344 8 335 16.1 20.9 0.00 0.00 0.00 49 1011.7
20260509192840 8 276 3.2 14.5 0.00 0.00 0.00 51 1011.4
20260509192336 7 341 9.7 20.9 0.00 0.00 0.00 52 1011.5
20260509191832 7 346 8.0 12.9 0.00 0.00 0.00 52 1011.7
20260509191328 7 310 6.4 12.9 0.00 0.00 0.00 53 1011.5
20260509190824 7 345 4.8 14.5 0.00 0.00 0.00 52 1011.5
20260509190321 7 342 8.0 17.7 0.00 0.00 0.00 51 1011.5
20260509185818 7 307 19.3 24.1 0.00 0.00 0.00 50 1011.2
20260509185314 7 333 12.9 20.9 0.00 0.00 0.00 49 1011.4
20260509184812 8 318 22.5 29.0 0.00 0.00 0.00 48 1011.2
20260509184309 7 314 17.7 24.1 0.00 0.00 0.00 51 1011.0
20260509183806 7 288 8.0 16.1 0.00 0.00 0.00 52 1010.8
20260509183301 7 327 12.9 17.7 0.00 0.00 0.00 52 1011.2
20260509182756 7 291 4.8 12.9 0.00 0.00 0.00 52 1011.0
20260509182254 7 39 4.8 17.7 0.00 0.00 0.00 52 1010.9
20260509181751 7 253 4.8 29.0 0.00 0.00 0.00 51 1010.8
20260509181249 8 260 9.7 11.3 0.00 0.00 0.00 48 1010.6
20260509180746 7 296 3.2 9.7 0.00 0.00 0.00 51 1010.6
20260509180242 7 354 11.3 17.7 0.00 0.00 0.00 51 1010.7
20260509175738 7 313 14.5 20.9 0.00 0.00 0.00 52 1010.6
20260509175229 6 16 4.8 27.4 0.00 0.00 0.00 53 1010.5
20260509174725 6 251 11.3 20.9 0.00 0.00 0.00 54 1010.2
20260509174220 6 334 11.3 20.9 0.00 0.00 0.00 55 1010.2
20260509173717 7 10 12.9 20.9 0.00 0.00 0.00 54 1010.2
20260509173213 7 288 8.0 14.5 0.00 0.00 0.00 53 1010.1
20260509172709 7 190 6.4 16.1 0.00 0.00 0.00 54 1010.0
20260509172205 7 288 8.0 17.7 0.00 0.00 0.00 53 1010.1
20260509171701 7 307 11.3 22.5 0.00 0.00 0.00 55 1009.8
20260509171157 7 333 8.0 11.3 0.00 0.00 0.00 55 1009.8
20260509170654 7 336 19.3 27.4 0.00 0.00 0.00 55 1009.8
20260509170150 7 306 19.3 33.8 0.00 0.00 0.00 53 1009.4
20260509165649 8 314 8.0 14.5 0.00 0.00 0.00 49 1009.4
20260509165144 7 351 12.9 20.9 0.00 0.00 0.00 53 1009.2
20260509164641 6 354 24.1 35.4 0.00 0.00 0.00 58 1009.6
20260509164136 6 318 16.1 27.4 0.00 0.00 0.00 59 1009.3
20260509163634 7 10 4.8 22.5 0.00 0.00 0.00 58 1009.0
20260509163130 7 332 14.5 24.1 0.00 0.00 0.00 57 1009.3
20260509162627 6 338 6.4 29.0 0.00 0.00 0.00 59 1009.1
20260509162123 7 264 16.1 25.7 0.00 0.00 0.00 57 1008.9
20260509161619 7 26 8.0 22.5 0.00 0.00 0.00 58 1009.0
20260509161115 7 323 19.3 35.4 0.00 0.00 0.00 58 1008.7
20260509160611 8 324 14.5 22.5 0.00 0.00 0.00 55 1008.7
20260509160106 7 322 20.9 37.0 0.00 0.00 0.00 57 1008.3
20260509155603 7 315 12.9 20.9 0.00 0.00 0.00 56 1008.8
20260509155059 7 279 4.8 24.1 0.00 0.00 0.00 56 1008.3
20260509154555 8 278 17.7 29.0 0.00 0.00 0.00 55 1008.4
20260509154053 7 332 14.5 16.1 0.00 0.00 0.00 55 1008.2
20260509153549 8 328 4.8 22.5 0.00 0.00 0.00 53 1007.7
20260509153046 7 6 16.1 20.9 0.00 0.00 0.00 53 1007.9
20260509152542 7 316 9.7 17.7 0.00 0.00 0.00 52 1007.7
20260509152040 8 316 11.3 27.4 0.00 0.00 0.00 52 1007.4
20260509151535 7 355 17.7 25.7 0.00 0.00 0.00 52 1007.6
20260509151033 7 5 9.7 17.7 0.00 0.00 0.00 51 1007.3
20260509150531 8 323 14.5 17.7 0.00 0.00 0.00 51 1007.3
20260509150029 7 308 6.4 24.1 0.00 0.00 0.00 53 1007.2
20260509145524 8 346 14.5 27.4 0.00 0.00 0.00 52 1007.0
20260509145019 7 185 4.8 16.1 0.00 0.00 0.00 53 1006.9
20260509144517 7 286 6.4 20.9 0.00 0.00 0.00 53 1006.6
20260509144014 7 346 3.2 20.9 0.00 0.00 0.00 54 1006.9
20260509143510 7 320 20.9 25.7 0.00 0.00 0.00 53 1006.9
20260509143009 7 4 9.7 25.7 0.00 0.00 0.00 53 1006.5
20260509142504 7 302 17.7 33.8 0.00 0.00 0.00 54 1006.5
20260509141959 7 350 22.5 32.2 0.00 0.00 0.00 54 1006.5
20260509141456 7 325 9.7 25.7 0.00 0.00 0.00 52 1006.3
20260509140953 7 299 4.8 20.9 0.00 0.00 0.00 54 1006.5
20260509140449 7 226 6.4 14.5 0.00 0.00 0.00 53 1006.4
20260509135948 7 315 14.5 16.1 0.00 0.00 0.00 54 1006.2
20260509135445 6 113 4.8 14.5 0.00 0.00 0.00 55 1006.2
20260509134942 6 350 11.3 16.1 0.00 0.00 0.00 56 1006.1
20260509134439 6 299 11.3 22.5 0.00 0.00 0.00 55 1006.0
20260509133936 6 92 3.2 25.7 0.00 0.00 0.00 55 1005.8
20260509133433 6 351 9.7 22.5 0.00 0.00 0.00 55 1005.8
20260509132932 6 279 8.0 20.9 0.00 0.00 0.00 55 1005.8
20260509132429 7 306 6.4 14.5 0.00 0.00 0.00 55 1005.6
20260509131926 7 221 3.2 20.9 0.00 0.00 0.00 54 1005.8
20260509131423 6 5 3.2 14.5 0.00 0.00 0.00 56 1005.6